LiveATC.Net - Listen to live air traffic control over the Internet!


ICAO: KFAR  IATA: FAR   Airport: Hector International Airport
City: Fargo   State/Province: North Dakota
Country: United States   Continent: North America
KFAR METAR Weather: KFAR 180953Z AUTO 23008KT 10SM BKN090 04/M02 A2987 RMK AO2 SLP121 T00391017
KFAR Flight Activity (FlightAware)
KFAR Airport Info   (iFlightPlanner)
KFAR VFR Sectional Chart   (iFlightPlanner) 
KFAR IFR Low Chart   (iFlightPlanner) 

KFAR Tower
Feed Status: UP   Listeners: 0
Listen in your browser - HTML5 player (in browser, HTML5)
Click here to listen with your own player (launches your MP3 player)
Archive Access: KFAR Tower
FacilityFrequency
Fargo Tower133.800

NOTICE

Unauthorized use prohibited. See LiveATC.net Terms of Service


Airport/ARTCC Code
Frequency Search
(e.g., 124.400, 128.75)
Site-wide search
 


Browse Feeds
Top 50 Feeds
HF Oceanic Feeds
Coverage Map
Bad Weather Areas

LiveATC FAQ
Offer LiveATC feed
Contact LiveATC.net
Press Inquiries

LiveATC on iPhone
LiveATC on Android

Windows Phone
Windows 8/10

LiveATC Mobile
(Mobile browser)

ATC Audio Archives
Interesting Recordings

LiveATC Forums


Home Page
About LiveATC.net
Make a Donation
Terms of Use
Privacy Policy

Canadian Air Freqs

AIRMETs/SIGMETs

FAA Airport Status
Nat'l Airspace Status
Arrival Demand Charts


Server Software By:
Icecast.org
Liquidsoap